Content
SEND FEEDBACK

Daily
Averages
Monthly
Summary
French Polynesia

FAAA, FRENCH POLYNESIA


Home > Oceania > French Polynesia
Elevation: 7 feet     Latitude: 17 33S     Longitude: 149 37W

WEATHER
 
SELECT A DAY
Number of Records: 214,388;   Date Range: 6/30/96 - 10/24/14
 
SHARE

PRINT THIS DATA

[ ← Previous Day ]
WEATHER ALMANAC - JANUARY 6, 2013
[ Next Day → ]
[ °C ]   °F
Weather ElementAverageHighLow
Temperature77.4 °F84.2 °F (11:00 am)73.4 °F (3:30 pm)
Dewpoint70.8 °F75.2 °F (5:30 pm)66.2 °F (12:30 am)
Humidity80.1 %94 % (5:30 pm)59 % (8:00 am)
Barometer29.77 in29.87 in (11:00 pm)29.71 in (2:00 am)
Wind Speed15.1 mph28.8 mph (6:00 pm)
Wind Gust36.8 mph (3:00 pm)
Weather ElementAverage
Visibility5.6 mi
Wind DirectionE (88.6 °)

Weather ElementTotal
Precipitation---
Cooling Degree Days13.8 (Base 65)
Growing Degree Days28.8 (Base 50)
Averaged from 56 records on January 6, 2013
WEATHER CONDITIONS BREAKOUT
WIND DIRECTION BREAKOUT
WEATHER BY HOUR - JANUARY 6, 2013
[ °C ]   °F
Local TimeTemperatureDewpointHumidityBarometerVisibilityWind DirectionWind SpeedGust SpeedPrecipitationEventsConditions
12:30 AM77.0 °F66.2 °F69 %29.74 in3.7 miENE (60°)17.3 mphRainLight Rain
1:00 AM77.0 °F69.8 °F78 %29.74 in3.7 miNE (40°)18.4 mphRainLight Rain
1:30 AM77.0 °F69.8 °F78 %29.74 in3.7 miNE (50°)19.6 mphRainLight Rain
2:00 AM76.0 °F69.0 °F75 %29.73 in7.0 miENE (60°)19.6 mphRainLight Rain
2:00 AM75.2 °F69.8 °F83 %29.71 in6.2 miENE (60°)19.6 mphRainLight Rain
2:30 AM75.2 °F69.8 °F83 %29.71 in6.2 miENE (60°)20.7 mphRainLight Rain
3:00 AM75.2 °F69.8 °F83 %29.71 in6.2 miENE (60°)15.0 mphRainLight Rain
3:30 AM75.2 °F71.6 °F89 %29.71 in6.2 miENE (60°)19.6 mphRainLight Rain
4:00 AM75.2 °F71.6 °F89 %29.71 in6.2 miENE (60°)15.0 mphRainLight Rain
4:30 AM75.2 °F71.6 °F89 %29.71 in6.2 miENE (70°)17.3 mphRainLight Rain
5:00 AM75.0 °F72.0 °F87 %29.74 inENE (70°)16.1 mphClear
5:00 AM75.2 °F71.6 °F89 %29.74 inENE (70°)16.1 mphOvercast
5:30 AM77.0 °F71.6 °F83 %29.74 in6.2 miNE (40°)17.3 mph
6:00 AM77.0 °F69.8 °F78 %29.77 in6.2 miEast (90°)10.4 mphMostly Cloudy
6:30 AM77.0 °F69.8 °F78 %29.77 in6.2 miENE (60°)13.8 mphMostly Cloudy
7:00 AM77.0 °F68.0 °F74 %29.77 in6.2 miENE (60°)11.5 mphMostly Cloudy
7:30 AM78.8 °F68.0 °F69 %29.77 in6.2 miENE (60°)11.5 mphMostly Cloudy
8:00 AM80.0 °F68.0 °F59 %29.79 in12.0 miENE (60°)22.4 mphPartly Cloudy
8:00 AM80.6 °F68.0 °F65 %29.77 in6.2 miENE (60°)11.5 mphMostly Cloudy
8:30 AM80.6 °F66.2 °F61 %29.77 in6.2 miEast (80°)17.3 mphMostly Cloudy
9:00 AM78.8 °F68.0 °F69 %29.77 in6.2 miEast (80°)13.8 mphMostly Cloudy
9:30 AM80.6 °F69.8 °F70 %29.77 in6.2 miENE (60°)11.5 mphMostly Cloudy
10:00 AM80.6 °F71.6 °F74 %29.77 in6.2 miNE (50°)13.8 mphMostly Cloudy
10:30 AM82.4 °F73.4 °F74 %29.77 in6.2 miNE (50°)15.0 mphMostly Cloudy
11:00 AM84.0 °F73.0 °F63 %29.78 in11.0 miENE (60°)15.0 mphPartly Cloudy
11:00 AM84.2 °F73.4 °F70 %29.77 in6.2 miENE (60°)15.0 mphMostly Cloudy
11:30 AM82.4 °F71.6 °F70 %29.77 in6.2 miNE (50°)17.3 mphMostly Cloudy
12:00 PM80.6 °F69.8 °F70 %29.74 in6.2 miENE (60°)17.3 mphMostly Cloudy
12:30 PM80.6 °F71.6 °F74 %29.74 in6.2 miENE (70°)13.8 mphRainLight Rain
1:00 PM80.6 °F73.4 °F79 %29.74 in6.2 miENE (60°)17.3 mphMostly Cloudy
1:30 PM82.4 °F73.4 °F74 %29.74 in6.2 miENE (60°)16.1 mphMostly Cloudy
2:00 PM82.0 °F74.0 °F70 %29.75 in6.0 miNE (50°)13.8 mphOvercast
2:00 PM82.4 °F73.4 °F74 %29.74 in6.2 miNE (50°)13.8 mphMostly Cloudy
2:30 PM78.8 °F69.8 °F74 %29.74 in5.6 miNorth (350°)11.5 mphMostly Cloudy
2:35 PM77.0 °F69.8 °F78 %29.74 in5.6 miNNW (330°)13.8 mphMostly Cloudy
3:00 PM75.2 °F71.6 °F89 %29.74 in0.3 miNorth (360°)25.3 mph36.8 mphRainRain
3:30 PM73.4 °F69.8 °F88 %29.74 in5.6 miVariable5.8 mphRainLight Rain
4:00 PM75.2 °F71.6 °F89 %29.74 in6.2 miNE (50°)6.9 mphMostly Cloudy
4:30 PM75.2 °F71.6 °F89 %29.74 in0.4 miNNE (20°)19.6 mphRainHeavy Rain
5:00 PM74.0 °F72.0 °F91 %29.77 in4.0 miENE (60°)9.2 mphRainLight Rain
5:00 PM75.2 °F71.6 °F89 %29.77 in3.7 miENE (60°)9.2 mphRainLight Rain
5:30 PM77.0 °F75.2 °F94 %29.77 in0.4 miNNE (30°)20.7 mph33.4 mphRainHeavy Rain
6:00 PM75.2 °F71.6 °F89 %29.80 in1.2 miNorth (350°)28.8 mphRainLight Rain
6:30 PM75.2 °F71.6 °F89 %29.80 in6.2 miNorth (10°)18.4 mphMostly Cloudy
7:00 PM75.2 °F71.6 °F89 %29.80 in5.0 miEast (80°)17.3 mphRainLight Rain
7:30 PM73.4 °F69.8 °F88 %29.83 in6.2 miEast (80°)11.5 mphRainLight Rain
8:00 PM75.0 °F70.0 °F79 %29.83 in6.0 miENE (70°)10.4 mphRainLight Rain
8:00 PM75.2 °F69.8 °F83 %29.83 in6.2 miENE (70°)10.4 mphRainLight Rain
8:30 PM75.2 °F71.6 °F89 %29.83 in5.0 miNE (50°)13.8 mphRainLight Rain
9:00 PM75.2 °F71.6 °F89 %29.83 in5.0 miENE (70°)11.5 mphRainLight Rain
9:30 PM75.2 °F69.8 °F83 %29.83 in6.2 miENE (70°)9.2 mphMostly Cloudy
10:00 PM77.0 °F69.8 °F78 %29.83 in6.2 miEast (90°)10.4 mphMostly Cloudy
10:30 PM77.0 °F71.6 °F83 %29.86 in3.1 miNE (40°)13.8 mph29.9 mphRainRain Showers
11:00 PM74.0 °F72.0 °F92 %29.87 in5.0 miNorth (10°)16.1 mphRainLight Rain
11:00 PM75.2 °F71.6 °F89 %29.86 in5.0 miNorth (360°)16.1 mphRainLight Rain
11:30 PM75.2 °F73.4 °F94 %29.83 in6.2 miNorth (360°)13.8 mphRainLight Rain
Hourly data recorded from NTAA, located miles away from Faaa, French Polynesia







STORIES FROM OUR PARTNERS